Burlington, WI

7:23 PM CDT on August 21, 2017 (GMT -0500)
Burlington

Weather History for KBUU - October, 2013

Change the Weather History Date:

Friday, October 25, 2013

  Actual Average (KENW) Record (KENW)
Temperature  
Mean Temperature 35 °F -  
Max Temperature 50 °F 55 °F 75 °F (1964)
Min Temperature 21 °F 39 °F 23 °F (1962)
Degree Days  
Heating Degree Days 30    
Moisture  
Dew Point 25 °F    
Average Humidity 64    
Maximum Humidity 94    
Minimum Humidity 41    
Precipitation  
Precipitation 0.00 in - - ()
Sea Level Pressure  
Sea Level Pressure 30.22 in    
Wind  
Wind Speed 9 mph (SW)    
Max Wind Speed 22 mph    
Max Gust Speed 36 mph    
Visibility 10 miles    
Events      
Averages and records for this station are not official NWS values.
T = Trace of Precipitation, MM = Missing Value Source: NWS Daily Summary

Daily Weather History Graph

Daily Weather History Graph

Search for Another Location

Airport or City:

Trip Planner

Search our weather history database for the weather conditions in past years. The results will help you decide how hot, cold, wet, or windy it might be!

Date:

Astronomy

Oct. 25, 2013 Rise Set
Actual Time 7:18 AM CDT 5:55 PM CDT
Civil Twilight 6:49 AM CDT 6:24 PM CDT
Nautical Twilight 6:16 AM CDT 6:57 PM CDT
Astronomical Twilight 5:43 AM CDT 7:29 PM CDT
Moon 11:12 PM CDT (10/25) 1:01 PM CDT (10/25)
Length of Visible Light 11h 34m
Length of Day
10h 36m
Waning Gibbous, 62% of the Moon is Illuminated
Oct 25
Waning Gibbous
Oct 26
Last Quarter
Nov 3
New
Nov 9
First Quarter
Nov 17
Full

Hourly Weather History & Observations

Time (CDT) Temp. Windchill Dew Point Humidity Pressure Visibility Wind Dir Wind Speed Gust Speed Precip Events Conditions
12:15 AM 31.1 °F 25.4 °F 23.7 °F 74% 30.28 in 10.0 mi WNW 5.8 mph - N/A   Clear
12:35 AM 30.7 °F 24.9 °F 23.5 °F 75% 30.28 in 10.0 mi WNW 5.8 mph - N/A   Clear
12:55 AM 30.2 °F 24.3 °F 23.7 °F 77% 30.29 in 10.0 mi WNW 5.8 mph - N/A   Clear
1:15 AM 30.2 °F 23.4 °F 23.5 °F 76% 30.29 in 10.0 mi WNW 6.9 mph - N/A   Clear
1:35 AM 30.0 °F 23.2 °F 23.5 °F 77% 30.29 in 10.0 mi West 6.9 mph - N/A   Clear
1:55 AM 28.9 °F 21.9 °F 23.2 °F 79% 30.30 in 10.0 mi West 6.9 mph - N/A   Clear
2:15 AM 28.8 °F 22.6 °F 23.0 °F 79% 30.31 in 10.0 mi West 5.8 mph - N/A   Clear
2:35 AM 28.8 °F 23.7 °F 23.0 °F 79% 30.31 in 10.0 mi West 4.6 mph - N/A   Clear
2:55 AM 27.0 °F 23.0 °F 21.7 °F 81% 30.31 in 10.0 mi SSW 3.5 mph - N/A   Clear
3:15 AM 24.6 °F - 21.7 °F 89% 30.31 in 10.0 mi Calm Calm - N/A   Clear
3:35 AM 23.9 °F 19.5 °F 21.7 °F 91% 30.31 in 10.0 mi South 3.5 mph - N/A   Clear
3:55 AM 23.7 °F 19.3 °F 21.2 °F 90% 30.31 in 10.0 mi SSW 3.5 mph - N/A   Clear
4:15 AM 23.7 °F 16.6 °F 21.0 °F 89% 30.31 in 10.0 mi SSW 5.8 mph - N/A   Clear
4:35 AM 24.4 °F 20.1 °F 21.9 °F 90% 30.32 in 10.0 mi SSW 3.5 mph - N/A   Clear
4:55 AM 23.7 °F 19.3 °F 21.4 °F 91% 30.32 in 10.0 mi SSW 3.5 mph - N/A   Clear
5:15 AM 23.0 °F 17.0 °F 21.0 °F 92% 30.33 in 10.0 mi SW 4.6 mph - N/A   Clear
5:35 AM 22.5 °F 15.1 °F 20.7 °F 93% 30.33 in 10.0 mi SSW 5.8 mph - N/A   Clear
5:55 AM 21.7 °F 13.2 °F 20.3 °F 94% 30.34 in 10.0 mi SSW 6.9 mph - N/A   Clear
6:15 AM 21.9 °F 14.5 °F 19.9 °F 92% 30.34 in 10.0 mi SSW 5.8 mph - N/A   Clear
6:35 AM 21.4 °F 15.1 °F 19.8 °F 93% 30.34 in 10.0 mi SSW 4.6 mph - N/A   Clear
6:55 AM 21.7 °F 15.5 °F 20.1 °F 93% 30.34 in 10.0 mi SSW 4.6 mph - N/A   Clear
7:15 AM 22.5 °F 15.1 °F 21.0 °F 94% 30.34 in 10.0 mi SSW 5.8 mph - N/A   Clear
7:35 AM 21.7 °F 14.3 °F 20.3 °F 94% 30.35 in 10.0 mi SSW 5.8 mph - N/A   Clear
7:55 AM 24.6 °F 17.7 °F 22.8 °F 93% 30.35 in 10.0 mi SSW 5.8 mph - N/A   Clear
8:15 AM 27.5 °F 22.2 °F 24.8 °F 90% 30.36 in 10.0 mi South 4.6 mph - N/A   Scattered Clouds
8:35 AM 29.1 °F 25.4 °F 25.3 °F 86% 30.36 in 10.0 mi SSW 3.5 mph - N/A   Scattered Clouds
8:55 AM 31.6 °F 26.0 °F 27.0 °F 83% 30.36 in 10.0 mi SW 5.8 mph - N/A   Clear
9:15 AM 33.8 °F 30.8 °F 27.9 °F 79% 30.36 in 10.0 mi South 3.5 mph - N/A   Clear
9:35 AM 36.5 °F 33.9 °F 29.1 °F 75% 30.36 in 10.0 mi South 3.5 mph - N/A   Clear
9:55 AM 39.6 °F 34.0 °F 28.6 °F 65% 30.35 in 10.0 mi West 8.1 mph - N/A   Mostly Cloudy
10:15 AM 40.5 °F 33.6 °F 28.2 °F 62% 30.36 in 10.0 mi WSW 11.5 mph - N/A   Mostly Cloudy
10:35 AM 40.1 °F 34.1 °F 27.7 °F 61% 30.35 in 10.0 mi WSW 9.2 mph - N/A   Overcast
10:55 AM 39.7 °F 33.2 °F 27.5 °F 62% 30.35 in 10.0 mi SW 10.4 mph - N/A   Overcast
11:15 AM 41.2 °F 34.5 °F 26.8 °F 57% 30.34 in 10.0 mi SW 11.5 mph - N/A   Overcast
11:35 AM 41.0 °F 35.2 °F 25.3 °F 54% 30.33 in 10.0 mi SW 9.2 mph - N/A   Overcast
11:55 AM 44.4 °F 37.5 °F 27.1 °F 51% 30.32 in 10.0 mi SSW 15.0 mph - N/A   Mostly Cloudy
12:15 PM 45.5 °F 38.6 °F 25.9 °F 46% 30.30 in 10.0 mi SW 16.1 mph - N/A   Scattered Clouds
12:35 PM 46.2 °F 39.5 °F 27.0 °F 47% 30.29 in 10.0 mi SW 16.1 mph 20.7 mph N/A   Clear
12:55 PM 46.9 °F - 28.4 °F 49% 30.27 in 10.0 mi SW 17.3 mph 25.3 mph N/A   Scattered Clouds
1:15 PM 47.8 °F - 27.5 °F 45% 30.26 in 10.0 mi SW 16.1 mph 23.0 mph N/A   Scattered Clouds
1:35 PM 46.8 °F - 27.3 °F 47% 30.25 in 10.0 mi WSW 11.5 mph 27.6 mph N/A   Scattered Clouds
1:55 PM 45.9 °F 40.0 °F 27.3 °F 48% 30.23 in 10.0 mi WSW 12.7 mph 28.8 mph N/A   Scattered Clouds
2:15 PM 48.4 °F - 28.2 °F 46% 30.22 in 10.0 mi WSW 13.8 mph 24.2 mph N/A   Scattered Clouds
2:35 PM 48.2 °F - 27.5 °F 45% 30.20 in 10.0 mi WSW 18.4 mph 21.9 mph N/A   Scattered Clouds
2:55 PM 48.6 °F - 26.4 °F 42% 30.19 in 10.0 mi WSW 17.3 mph 25.3 mph N/A   Scattered Clouds
3:15 PM 49.3 °F - 26.8 °F 42% 30.19 in 10.0 mi West 18.4 mph 23.0 mph N/A   Clear
3:35 PM 49.6 °F - 26.6 °F 41% 30.18 in 10.0 mi WSW 16.1 mph 23.0 mph N/A   Clear
3:55 PM 49.3 °F - 26.8 °F 42% 30.17 in 10.0 mi WSW 15.0 mph 24.2 mph N/A   Clear
4:15 PM 49.1 °F - 27.3 °F 43% 30.17 in 10.0 mi SW 18.4 mph 24.2 mph N/A   Scattered Clouds
4:35 PM 48.6 °F - 27.3 °F 44% 30.15 in 10.0 mi WSW 18.4 mph 25.3 mph N/A   Clear
4:55 PM 48.2 °F - 27.7 °F 45% 30.14 in 10.0 mi SW 19.6 mph - N/A   Clear
5:15 PM 47.3 °F - 27.7 °F 47% 30.13 in 10.0 mi SW 20.7 mph 26.5 mph N/A   Clear
5:35 PM 46.4 °F 40.7 °F 27.7 °F 48% 30.12 in 10.0 mi SW 12.7 mph 25.3 mph N/A   Clear
5:55 PM 45.5 °F 38.9 °F 27.7 °F 50% 30.11 in 10.0 mi SW 15.0 mph 19.6 mph N/A   Clear
6:15 PM 43.7 °F 37.7 °F 28.0 °F 54% 30.09 in 10.0 mi SSW 11.5 mph - N/A   Clear
6:35 PM 42.6 °F 36.3 °F 27.7 °F 56% 30.08 in 10.0 mi SSW 11.5 mph - N/A   Clear
6:55 PM 42.8 °F 36.2 °F 27.5 °F 55% 30.08 in 10.0 mi SSW 12.7 mph - N/A   Clear
7:15 PM 42.3 °F 36.3 °F 27.9 °F 57% 30.07 in 10.0 mi SSW 10.4 mph - N/A   Clear
7:35 PM 42.4 °F 36.1 °F 27.7 °F 56% 30.05 in 10.0 mi SSW 11.5 mph - N/A   Mostly Cloudy
7:55 PM 43.0 °F 36.0 °F 27.5 °F 54% 30.05 in 10.0 mi SSW 13.8 mph 21.9 mph N/A   Overcast
8:15 PM 43.3 °F 35.2 °F 27.3 °F 53% 30.03 in 10.0 mi SSW 18.4 mph 21.9 mph N/A   Overcast
8:35 PM 44.2 °F 36.7 °F 26.4 °F 50% 30.02 in 10.0 mi SSW 17.3 mph 25.3 mph N/A   Scattered Clouds
8:55 PM 44.6 °F 37.2 °F 26.2 °F 49% 30.01 in 10.0 mi SW 17.3 mph 26.5 mph N/A   Clear
9:15 PM 44.6 °F 36.9 °F 25.7 °F 48% 30.01 in 10.0 mi SW 18.4 mph 26.5 mph N/A   Clear
9:35 PM 45.0 °F 36.6 °F 25.5 °F 47% 30.01 in 10.0 mi SW 21.9 mph 32.2 mph N/A   Clear
9:55 PM 45.1 °F 36.9 °F 25.9 °F 47% 30.00 in 10.0 mi SW 21.9 mph 31.1 mph N/A   Clear
10:15 PM 44.8 °F 36.4 °F 26.1 °F 48% 29.99 in 10.0 mi SSW 21.9 mph 35.7 mph N/A   Clear
10:35 PM 44.6 °F 36.6 °F 26.6 °F 49% 29.99 in 10.0 mi SW 19.6 mph 28.8 mph N/A   Clear
10:55 PM 44.2 °F 36.4 °F 26.1 °F 49% 29.98 in 10.0 mi SW 18.4 mph 31.1 mph N/A   Clear
11:15 PM 44.6 °F 36.1 °F 25.7 °F 48% 29.97 in 10.0 mi SW 21.9 mph 28.8 mph N/A   Clear
11:35 PM 44.2 °F 36.4 °F 25.5 °F 48% 29.96 in 10.0 mi SW 18.4 mph 28.8 mph N/A   Clear
11:55 PM 43.9 °F 35.4 °F 25.7 °F 49% 29.95 in 10.0 mi SW 20.7 mph 29.9 mph N/A   Clear